When you browse on this site, cookies collect data to enhance your experience and personalize the content and advertising you see.
Visit our Privacy Policy to learn more. By continuing to use the site, you agree to this use of cookies and data.
EN

Hourly Weather Alife

Today, 13 August, Thursday

Time Temperature Precipitation Wind Pressure Humidity
00:00 +23°C° 0 mm 0 mps 742 mmHg 71%
01:00 +23°C° 0 mm 0 mps 742 mmHg 71%
02:00 +22°C° 0 mm 0 mps 742 mmHg 71%
03:00 +22°C° 0 mm 0 mps 742 mmHg 71%
04:00 +22°C° 0 mm 0 mps 741 mmHg 71%
05:00 +23°C° 0 mm 0 mps 742 mmHg 66%
06:00 +24°C° 0 mm 0 mps 742 mmHg 61%
07:00 +26°C° 0 mm 0 mps 742 mmHg 55%
08:00 +30°C° 0 mm 1 mps 742 mmHg 47%
09:00 +32°C° 0 mm 1 mps 742 mmHg 40%
10:00 +36°C° 0 mm 2 mps 742 mmHg 32%
11:00 +36°C° 0 mm 2 mps 742 mmHg 30%
12:00 +37°C° 0 mm 3 mps 742 mmHg 28%
13:00 +38°C° 0 mm 4 mps 742 mmHg 28%
14:00 +37°C° 0 mm 4 mps 742 mmHg 29%
15:00 +37°C° 0 mm 3 mps 742 mmHg 30%
16:00 +36°C° 0 mm 3 mps 741 mmHg 32%
17:00 +34°C° 0 mm 3 mps 741 mmHg 37%
18:00 +31°C° 0 mm 2 mps 741 mmHg 43%
19:00 +29°C° 0 mm 1 mps 741 mmHg 48%
20:00 +28°C° 0 mm 1 mps 741 mmHg 51%
21:00 +27°C° 0 mm 1 mps 741 mmHg 54%
22:00 +25°C° 0 mm 1 mps 741 mmHg 57%
23:00 +25°C° 0 mm 1 mps 741 mmHg 57%

Tomorrow, 14 August, Friday

Time Temperature Precipitation Wind Pressure Humidity
00:00 +25°C° 0 mm 1 mps 741 mmHg 57%
01:00 +24°C° 0 mm 1 mps 741 mmHg 56%
02:00 +24°C° 0 mm 1 mps 740 mmHg 56%
03:00 +24°C° 0 mm 1 mps 740 mmHg 56%
04:00 +24°C° 0 mm 1 mps 740 mmHg 56%
05:00 +25°C° 0 mm 1 mps 740 mmHg 53%
06:00 +26°C° 0 mm 1 mps 740 mmHg 50%
07:00 +28°C° 0 mm 1 mps 740 mmHg 46%
08:00 +30°C° 0 mm 1 mps 740 mmHg 40%
09:00 +32°C° 0 mm 2 mps 740 mmHg 34%
10:00 +35°C° 0 mm 2 mps 739 mmHg 27%
11:00 +36°C° 0 mm 3 mps 739 mmHg 29%
12:00 +36°C° 0 mm 5 mps 739 mmHg 30%
13:00 +36°C° 0 mm 6 mps 739 mmHg 31%
14:00 +36°C° 0 mm 5 mps 739 mmHg 36%
15:00 +35°C° 0 mm 5 mps 739 mmHg 41%
16:00 +34°C° 0 mm 4 mps 738 mmHg 46%
17:00 +31°C° 0 mm 3 mps 738 mmHg 55%
18:00 +29°C° 0 mm 3 mps 738 mmHg 65%
19:00 +27°C° 0 mm 2 mps 738 mmHg 74%
20:00 +26°C° 0 mm 2 mps 738 mmHg 79%
21:00 +25°C° 0 mm 1 mps 738 mmHg 84%
22:00 +24°C° 0 mm 1 mps 739 mmHg 90%
23:00 +24°C° 0 mm 1 mps 739 mmHg 91%

Day after tomorrow, 15 August, Saturday

Time Temperature Precipitation Wind Pressure Humidity
00:00 +24°C° 0 mm 1 mps 739 mmHg 91%
01:00 +24°C° 0 mm 1 mps 739 mmHg 92%
02:00 +24°C° 0 mm 1 mps 739 mmHg 91%
03:00 +25°C° 0 mm 1 mps 738 mmHg 90%
04:00 +25°C° 0 mm 1 mps 738 mmHg 89%
05:00 +25°C° 0 mm 1 mps 738 mmHg 86%
06:00 +26°C° 0 mm 1 mps 739 mmHg 82%
07:00 +25°C° 0 mm 0 mps 739 mmHg 79%
08:00 +29°C° 0 mm 1 mps 739 mmHg 67%
09:00 +31°C° 0 mm 1 mps 739 mmHg 54%
10:00 +34°C° 0 mm 1 mps 739 mmHg 42%
11:00 +35°C° 0 mm 2 mps 739 mmHg 38%
12:00 +36°C° 0 mm 3 mps 739 mmHg 34%
13:00 +37°C° 0 mm 4 mps 739 mmHg 30%
14:00 +36°C° 0.2 mm 4 mps 739 mmHg 35%
15:00 +35°C° 0.2 mm 4 mps 738 mmHg 41%
16:00 +34°C° 0.2 mm 4 mps 738 mmHg 47%
17:00 +31°C° 0.2 mm 3 mps 738 mmHg 53%
18:00 +29°C° 0.2 mm 2 mps 738 mmHg 60%
19:00 +27°C° 0.2 mm 1 mps 738 mmHg 67%
20:00 +26°C° 0 mm 1 mps 738 mmHg 71%
21:00 +26°C° 0 mm 1 mps 738 mmHg 75%
22:00 +23°C° 0 mm 0 mps 739 mmHg 79%
23:00 +22°C° 0 mm 0 mps 739 mmHg 79%

16 August, Sunday

Time Temperature Precipitation Wind Pressure Humidity
00:00 +22°C° 0 mm 0 mps 738 mmHg 80%
01:00 +22°C° 0 mm 0 mps 738 mmHg 80%
02:00 +21°C° 0 mm 0 mps 738 mmHg 81%
03:00 +21°C° 0 mm 0 mps 738 mmHg 81%
04:00 +23°C° 0 mm 1 mps 738 mmHg 81%
05:00 +22°C° 0 mm 0 mps 738 mmHg 76%
06:00 +23°C° 0 mm 0 mps 738 mmHg 71%
07:00 +25°C° 0 mm 0 mps 739 mmHg 66%
08:00 +29°C° 0 mm 1 mps 739 mmHg 56%
09:00 +31°C° 0 mm 1 mps 739 mmHg 45%
10:00 +35°C° 0 mm 2 mps 740 mmHg 35%
11:00 +36°C° 0 mm 2 mps 739 mmHg 31%
12:00 +37°C° 0 mm 3 mps 739 mmHg 27%
13:00 +38°C° 0 mm 4 mps 739 mmHg 24%
14:00 +37°C° 0 mm 4 mps 739 mmHg 27%
15:00 +36°C° 0 mm 4 mps 739 mmHg 30%
16:00 +36°C° 0 mm 4 mps 739 mmHg 32%
17:00 +33°C° 0 mm 3 mps 739 mmHg 40%
18:00 +30°C° 0 mm 2 mps 739 mmHg 47%
19:00 +27°C° 0 mm 1 mps 739 mmHg 54%
20:00 +26°C° 0 mm 1 mps 739 mmHg 58%
21:00 +25°C° 0 mm 1 mps 739 mmHg 62%
22:00 +22°C° 0 mm 0 mps 739 mmHg 66%
23:00 +22°C° 0 mm 0 mps 739 mmHg 66%

17 August, Monday

Time Temperature Precipitation Wind Pressure Humidity
00:00 +24°C° 0 mm 1 mps 739 mmHg 66%
01:00 +24°C° 0 mm 1 mps 739 mmHg 66%
02:00 +23°C° 0 mm 1 mps 739 mmHg 66%
03:00 +23°C° 0 mm 1 mps 738 mmHg 65%
04:00 +21°C° 0 mm 0 mps 738 mmHg 65%
05:00 +24°C° 0 mm 1 mps 739 mmHg 60%
06:00 +26°C° 0 mm 1 mps 739 mmHg 55%
07:00 +27°C° 0 mm 1 mps 739 mmHg 51%
08:00 +29°C° 0 mm 1 mps 739 mmHg 43%
09:00 +32°C° 0 mm 2 mps 739 mmHg 36%
10:00 +35°C° 0 mm 2 mps 740 mmHg 28%
11:00 +36°C° 0 mm 3 mps 739 mmHg 27%
12:00 +37°C° 0 mm 4 mps 739 mmHg 25%
13:00 +38°C° 0 mm 4 mps 739 mmHg 24%
14:00 +37°C° 0 mm 4 mps 739 mmHg 27%
15:00 +36°C° 0 mm 5 mps 738 mmHg 30%
16:00 +35°C° 0 mm 5 mps 738 mmHg 33%
17:00 +33°C° 0 mm 4 mps 738 mmHg 39%
18:00 +30°C° 0 mm 3 mps 738 mmHg 46%
19:00 +28°C° 0 mm 2 mps 737 mmHg 52%
20:00 +27°C° 0 mm 1 mps 738 mmHg 57%
21:00 +26°C° 0 mm 1 mps 738 mmHg 62%
22:00 +24°C° 0 mm 1 mps 738 mmHg 66%
23:00 +24°C° 0 mm 1 mps 738 mmHg 68%

18 August, Tuesday

Time Temperature Precipitation Wind Pressure Humidity
00:00 +24°C° 0 mm 1 mps 737 mmHg 69%
01:00 +24°C° 0 mm 1 mps 737 mmHg 71%
02:00 +23°C° 0 mm 1 mps 737 mmHg 71%
03:00 +23°C° 0 mm 1 mps 737 mmHg 72%
04:00 +23°C° 0 mm 1 mps 736 mmHg 72%
05:00 +24°C° 0 mm 1 mps 736 mmHg 69%
06:00 +25°C° 0 mm 1 mps 736 mmHg 66%
07:00 +26°C° 0 mm 1 mps 736 mmHg 63%
08:00 +28°C° 0 mm 1 mps 737 mmHg 56%
09:00 +30°C° 0 mm 2 mps 737 mmHg 48%
10:00 +32°C° 0 mm 2 mps 737 mmHg 41%
11:00 +34°C° 0 mm 3 mps 737 mmHg 37%
12:00 +35°C° 0 mm 4 mps 737 mmHg 33%
13:00 +37°C° 0 mm 5 mps 737 mmHg 29%
14:00 +36°C° 0 mm 5 mps 736 mmHg 32%
15:00 +35°C° 0 mm 4 mps 736 mmHg 34%
16:00 +35°C° 0 mm 4 mps 736 mmHg 37%
17:00 +31°C° 0 mm 3 mps 736 mmHg 46%
18:00 +29°C° 0 mm 2 mps 736 mmHg 55%
19:00 +27°C° 0 mm 1 mps 736 mmHg 64%
20:00 +26°C° 0 mm 1 mps 737 mmHg 69%
21:00 +25°C° 0 mm 1 mps 737 mmHg 73%
22:00 +24°C° 0 mm 1 mps 737 mmHg 78%
23:00 +24°C° 0 mm 1 mps 737 mmHg 78%
Show more